CW8514 Weather Reports


Display with metric or nautical units.
time (UTC)temp
F
wind
direction
speed
MPH
gust
MPH
rain 1hr
in
rain 24hr
in
rain mn
in
humidity
%
barometer
mb
20200229140135 52 345 5.0 10.0 0.00 0.00 0.00 57 1014.1
20200229134727 52 11 5.0 9.0 0.00 0.00 0.00 56 1014.0
20200229133133 53 355 4.0 10.0 0.00 0.00 0.00 56 1014.1
20200229131707 53 30 7.0 10.0 0.00 0.00 0.00 53 1014.0
20200229130121 54 40 4.0 8.0 0.00 0.00 0.00 54 1014.0
20200229124727 53 19 2.0 8.0 0.00 0.00 0.00 55 1014.2
20200229123151 53 11 4.0 8.0 0.00 0.00 0.00 53 1014.2
20200229121713 53 11 4.0 6.0 0.00 0.00 0.00 52 1014.3
20200229120111 53 355 3.0 5.0 0.00 0.00 0.00 47 1014.6
20200229114640 54 5 1.0 4.0 0.00 0.00 0.00 46 1014.6
20200229113116 55 9 0.0 2.0 0.00 0.00 0.00 47 1014.6
20200229111831 55 11 1.0 4.0 0.00 0.00 0.00 43 1014.7
20200229110154 54 5 1.0 6.0 0.00 0.00 0.00 41 1014.4
20200229104613 55 290 1.0 3.0 0.00 0.00 0.00 41 1014.5
20200229103106 56 264 0.0 1.0 0.00 0.00 0.00 40 1014.6
20200229101625 56 261 0.0 2.0 0.00 0.00 0.00 38 1014.5
20200229100039 56 311 2.0 6.0 0.00 0.00 0.00 37 1014.3
20200229094546 58 299 2.0 4.0 0.00 0.00 0.00 43 1014.4
20200229093052 59 22 0.0 4.0 0.00 0.00 0.00 37 1014.4
20200229091555 57 13 2.0 5.0 0.00 0.00 0.00 34 1014.5
20200229090041 56 31 4.0 10.0 0.00 0.00 0.00 35 1014.1
20200229084528 56 18 3.0 10.0 0.00 0.00 0.00 35 1014.3
20200229083114 57 345 3.0 8.0 0.00 0.00 0.00 35 1014.5
20200229081549 57 5 4.0 9.0 0.00 0.00 0.00 35 1014.6
20200229080026 57 11 3.0 8.0 0.00 0.00 0.00 35 1014.8
20200229074514 57 5 3.0 6.0 0.00 0.00 0.00 37 1014.8
20200229073007 59 12 1.0 4.0 0.00 0.00 0.00 37 1015.1
20200229071843 59 12 3.0 5.0 0.00 0.00 0.00 38 1015.0
20200229070126 60 39 2.0 4.0 0.00 0.00 0.00 36 1014.9
20200229064752 59 344 1.0 4.0 0.00 0.00 0.00 40 1015.0
20200229063119 60 309 0.0 2.0 0.00 0.00 0.00 42 1015.2
20200229061544 61 182 0.0 5.0 0.00 0.00 0.00 45 1015.3
20200229060107 62 198 0.0 2.0 0.00 0.00 0.00 34 1015.0
20200229054557 61 79 1.0 6.0 0.00 0.00 0.00 26 1014.6
20200229053059 62 345 4.0 9.0 0.00 0.00 0.00 25 1014.4
20200229051549 63 355 3.0 5.0 0.00 0.00 0.00 27 1014.5
20200229050118 64 155 0.0 4.0 0.00 0.00 0.00 32 1014.6
20200229044529 64 150 1.0 5.0 0.00 0.00 0.00 32 1014.7
20200229043014 63 47 2.0 9.0 0.00 0.00 0.00 24 1014.7
20200229041532 63 19 4.0 11.0 0.00 0.00 0.00 25 1014.6
20200229040001 63 344 4.0 9.0 0.00 0.00 0.00 26 1014.7
20200229034631 64 20 5.0 9.0 0.00 0.00 0.00 24 1014.6
20200229033140 64 5 3.0 9.0 0.00 0.00 0.00 26 1014.6
20200229031637 65 320 3.0 8.0 0.00 0.00 0.00 27 1014.6
20200229030101 66 34 2.0 6.0 0.00 0.00 0.00 26 1014.6
20200229024641 69 293 3.0 10.0 0.00 0.00 0.00 19 1014.8
20200229023110 67 306 3.0 7.0 0.00 0.00 0.00 26 1014.7
20200229021608 67 360 2.0 5.0 0.00 0.00 0.00 29 1014.8
20200229020046 67 355 1.0 3.0 0.00 0.00 0.00 30 1014.7
20200229014538 66 225 1.0 2.0 0.00 0.00 0.00 45 1014.7
20200229013046 66 205 0.0 2.0 0.00 0.00 0.00 54 1014.8
20200229011605 67 252 2.0 8.0 0.00 0.00 0.00 53 1014.6
20200229010013 70 136 2.0 7.0 0.00 0.00 0.00 31 1014.2
20200229004519 73 178 2.0 5.0 0.00 0.00 0.00 21 1013.8
20200229003002 76 207 1.0 3.0 0.00 0.00 0.00 11 1013.7
20200229001641 76 240 0.0 1.0 0.00 0.00 0.00 10 1013.6
20200229000120 76 240 1.0 4.0 0.00 0.00 0.00 13 1013.9
20200228234633 74 234 1.0 5.0 0.00 0.00 0.00 20 1014.0
20200228233124 75 238 2.0 4.0 0.00 0.00 0.00 20 1014.0
20200228231628 75 236 1.0 6.0 0.00 0.00 0.00 22 1014.1
20200228224557 78 222 3.0 8.0 0.00 0.00 0.00 20 1014.0
20200228223138 80 215 3.0 7.0 0.00 0.00 0.00 5 1014.0
20200228221530 81 229 2.0 4.0 0.00 0.00 0.00 3 1014.0
20200228220017 80 237 1.0 5.0 0.00 0.00 0.00 6 1014.3
20200228214540 78 67 0.0 6.0 0.00 0.00 0.00 17 1014.6
20200228213037 74 218 2.0 4.0 0.00 0.00 0.00 26 1014.9
20200228211642 75 206 2.0 7.0 0.00 0.00 0.00 29 1015.1
20200228211508 74 240 3.0 7.0 0.00 0.00 0.00 28 1015.1
20200228210143 76 219 3.0 6.0 0.00 0.00 0.00 16 1015.2
20200228204638 75 196 3.0 6.0 0.00 0.00 0.00 18 1015.4
20200228203137 73 175 2.0 4.0 0.00 0.00 0.00 25 1015.7
20200228201757 73 171 3.0 5.0 0.00 0.00 0.00 22 1016.0
20200228200100 76 190 3.0 9.0 0.00 0.00 0.00 13 1015.8
20200228194614 75 248 1.0 5.0 0.00 0.00 0.00 15 1015.9
20200228193034 76 244 2.0 11.0 0.00 0.00 0.00 14 1016.0
20200228191526 81 186 2.0 9.0 0.00 0.00 0.00 13 1015.8
20200228190042 83 217 5.0 8.0 0.00 0.00 0.00 14 1015.9
20200228184523 82 328 2.0 6.0 0.00 0.00 0.00 19 1016.0
20200228183052 81 325 1.0 3.0 0.00 0.00 0.00 9 1016.2
20200228181513 79 11 1.0 4.0 0.00 0.00 0.00 11 1016.3
20200228180012 77 11 2.0 6.0 0.00 0.00 0.00 13 1016.5
20200228174501 75 13 1.0 6.0 0.00 0.00 0.00 14 1016.6
20200228173157 74 42 2.0 8.0 0.00 0.00 0.00 16 1016.6
20200228171613 72 5 2.0 8.0 0.00 0.00 0.00 17 1016.6
20200228171501 72 26 2.0 8.0 0.00 0.00 0.00 17 1016.6
20200228170238 71 5 4.0 9.0 0.00 0.00 0.00 18 1016.7
20200228164706 67 328 4.0 10.0 0.00 0.00 0.00 23 1016.6
20200228163205 65 342 2.0 9.0 0.00 0.00 0.00 24 1016.6
20200228161635 64 323 3.0 8.0 0.00 0.00 0.00 24 1016.6
20200228160105 62 344 2.0 5.0 0.00 0.00 0.00 26 1016.6
20200228154603 62 325 2.0 8.0 0.00 0.00 0.00 26 1016.4
20200228153121 62 294 2.0 9.0 0.00 0.00 0.00 24 1016.2
20200228151601 61 340 1.0 5.0 0.00 0.00 0.00 23 1016.2
20200228150131 61 328 2.0 9.0 0.00 0.00 0.00 23 1015.9
20200228144529 60 309 3.0 9.0 0.00 0.00 0.00 24 1015.7
20200228143056 60 325 3.0 9.0 0.00 0.00 0.00 26 1015.8
20200228141533 59 309 2.0 6.0 0.00 0.00 0.00 27 1015.8